Harlingen, TX

2:52 PM CDT on May 25, 2017 (GMT -0500)
Valley International

Weather History for KHRL - November, 2013

Change the Weather History Date:

Monday, November 18, 2013

  Actual Average Record
Temperature  
Mean Temperature 77 °F 68 °F  
Max Temperature 85 °F 79 °F 90 °F (1921)
Min Temperature 69 °F 57 °F 33 °F (1892)
Degree Days  
Heating Degree Days 0 2  
Month to date heating degree days 23 17  
Since 1 July heating degree days 23 20  
Cooling Degree Days 12 5  
Month to date cooling degree days 96 114  
Year to date cooling degree days 3993 3890  
Growing Degree Days 26 (Base 50)    
Moisture  
Dew Point 71 °F    
Average Humidity 83    
Maximum Humidity 100    
Minimum Humidity 65    
Precipitation  
Precipitation 0.00 in 0.03 in 0.89 in (1976)
Month to date precipitation 1.72 1.11  
Year to date precipitation 23.53 23.53  
Sea Level Pressure  
Sea Level Pressure 29.95 in    
Wind  
Wind Speed 5 mph (ESE)    
Max Wind Speed 15 mph    
Max Gust Speed 18 mph    
Visibility 6 miles    
Events Fog    
T = Trace of Precipitation, MM = Missing Value Source: NWS Daily Summary

Daily Weather History Graph

Daily Weather History Graph

Search for Another Location

Airport or City:

Trip Planner

Search our weather history database for the weather conditions in past years. The results will help you decide how hot, cold, wet, or windy it might be!

Date:

Astronomy

Nov. 18, 2013 Rise Set
Actual Time 6:51 AM CST 5:39 PM CST
Civil Twilight 6:27 AM CST 6:04 PM CST
Nautical Twilight 5:59 AM CST 6:32 PM CST
Astronomical Twilight 5:31 AM CST 7:00 PM CST
Moon 6:44 PM CST (11/18) 7:40 AM CST (11/18)
Length of Visible Light 11h 37m
Length of Day
10h 48m
Full, 99% of the Moon is Illuminated
Nov 18
Full
Nov 25
Last Quarter
Dec 2
New
Dec 9
First Quarter
Dec 17
Full

Hourly Weather History & Observations

Time (CST) Temp. Heat Index Dew Point Humidity Pressure Visibility Wind Dir Wind Speed Gust Speed Precip Events Conditions
12:52 AM 71.1 °F - 71.1 °F 100% 29.91 in 6.0 mi South 5.8 mph - N/A   Clear
1:27 AM 71.6 °F - 71.6 °F 100% 29.91 in 5.0 mi South 5.8 mph - N/A   Scattered Clouds
1:37 AM 71.6 °F - 71.6 °F 100% 29.91 in 5.0 mi South 3.5 mph - N/A   Mostly Cloudy
1:52 AM 71.1 °F - 71.1 °F 100% 29.91 in 6.0 mi South 3.5 mph - N/A   Overcast
2:44 AM 73.4 °F - 71.6 °F 94% 29.91 in 9.0 mi South 10.4 mph - N/A   Overcast
2:52 AM 72.0 °F - 72.0 °F 100% 29.91 in 9.0 mi South 6.9 mph - N/A   Mostly Cloudy
3:19 AM 71.6 °F - 71.6 °F 100% 29.91 in 8.0 mi South 8.1 mph - N/A   Mostly Cloudy
3:52 AM 71.1 °F - 71.1 °F 100% 29.91 in 7.0 mi South 4.6 mph - N/A   Mostly Cloudy
4:52 AM 70.0 °F - 70.0 °F 100% 29.91 in 5.0 mi Calm Calm - N/A   Overcast
5:17 AM 71.6 °F - 71.6 °F 100% 29.92 in 5.0 mi SSW 4.6 mph - N/A   Overcast
5:44 AM 69.8 °F - 69.8 °F 100% 29.92 in 5.0 mi Calm Calm - N/A   Overcast
5:52 AM 70.0 °F - 70.0 °F 100% 29.93 in 5.0 mi Calm Calm - N/A   Mostly Cloudy
6:01 AM 69.8 °F - 69.8 °F 100% 29.93 in 1.8 mi Calm Calm - N/A   Mostly Cloudy
6:05 AM 69.8 °F - 69.8 °F 100% 29.93 in 1.0 mi Calm Calm - N/A   Mostly Cloudy
6:12 AM 69.8 °F - 69.8 °F 100% 29.93 in 0.5 mi Calm Calm - N/A Fog Fog
6:19 AM 69.8 °F - 69.8 °F 100% 29.94 in 0.5 mi Calm Calm - N/A Fog Fog
6:24 AM 69.8 °F - 69.8 °F 100% 29.94 in 0.2 mi Calm Calm - N/A Fog Fog
6:32 AM 69.8 °F - 69.8 °F 100% 29.94 in 0.5 mi Calm Calm - N/A Fog Fog
6:52 AM 70.0 °F - 70.0 °F 100% 29.95 in 1.0 mi Calm Calm - N/A   Overcast
6:57 AM 69.8 °F - 69.8 °F 100% 29.95 in 2.0 mi Calm Calm - N/A   Overcast
7:11 AM 69.8 °F - 69.8 °F 100% 29.96 in 3.0 mi Calm Calm - N/A   Overcast
7:35 AM 69.8 °F - 69.8 °F 100% 29.96 in 2.5 mi Calm Calm - N/A   Scattered Clouds
7:52 AM 71.1 °F - 71.1 °F 100% 29.97 in 3.0 mi Calm Calm - N/A   Clear
8:19 AM 71.6 °F - 71.6 °F 100% 29.98 in 6.0 mi Calm Calm - N/A   Partly Cloudy
8:33 AM 71.6 °F - 71.6 °F 100% 29.98 in 7.0 mi Calm Calm - N/A   Mostly Cloudy
8:41 AM 71.6 °F - 71.6 °F 100% 29.98 in 7.0 mi Calm Calm - N/A   Mostly Cloudy
8:52 AM 72.0 °F - 72.0 °F 100% 29.99 in 7.0 mi South 3.5 mph - N/A   Overcast
9:38 AM 73.4 °F - 73.4 °F 100% 30.00 in 8.0 mi South 3.5 mph - N/A   Overcast
9:52 AM 75.0 °F - 73.0 °F 94% 30.01 in 9.0 mi WSW 4.6 mph - N/A   Overcast
10:28 AM 75.2 °F - 71.6 °F 89% 30.00 in 10.0 mi SW 4.6 mph - N/A   Overcast
10:52 AM 78.1 °F - 72.0 °F 81% 30.00 in 10.0 mi WSW 4.6 mph - N/A   Overcast
11:52 AM 80.1 °F 83.8 °F 72.0 °F 76% 29.97 in 10.0 mi SE 6.9 mph - N/A   Mostly Cloudy
12:04 PM 80.6 °F 84.6 °F 71.6 °F 74% 29.97 in 10.0 mi SSW 3.5 mph - N/A   Scattered Clouds
12:16 PM 80.6 °F 84.6 °F 71.6 °F 74% 29.96 in 10.0 mi SW 4.6 mph - N/A   Mostly Cloudy
12:52 PM 81.0 °F 84.9 °F 71.1 °F 72% 29.95 in 10.0 mi Calm Calm - N/A   Mostly Cloudy
1:04 PM 80.6 °F 84.6 °F 71.6 °F 74% 29.94 in 10.0 mi Calm Calm - N/A   Scattered Clouds
1:52 PM 82.9 °F 88.0 °F 72.0 °F 69% 29.92 in 9.0 mi WNW 3.5 mph - N/A   Partly Cloudy
2:52 PM 84.9 °F 90.7 °F 72.0 °F 65% 29.90 in 10.0 mi NE 4.6 mph - N/A   Mostly Cloudy
3:52 PM 80.1 °F 84.2 °F 73.0 °F 79% 29.91 in 10.0 mi ENE 13.8 mph - N/A   Mostly Cloudy
4:52 PM 75.9 °F - 73.0 °F 91% 29.93 in 10.0 mi ENE 13.8 mph - N/A   Scattered Clouds
5:52 PM 73.0 °F - 72.0 °F 96% 29.94 in 10.0 mi ENE 12.7 mph - N/A   Partly Cloudy
6:17 PM 73.4 °F - 71.6 °F 94% 29.95 in 10.0 mi ENE 11.5 mph - N/A   Scattered Clouds
6:20 PM 71.6 °F - 71.6 °F 100% 29.95 in 10.0 mi ENE 10.4 mph - N/A   Mostly Cloudy
6:52 PM 72.0 °F - 72.0 °F 100% 29.97 in 9.0 mi NE 9.2 mph - N/A   Overcast
7:52 PM 71.1 °F - 71.1 °F 100% 29.98 in 8.0 mi NE 6.9 mph - N/A   Clear
8:20 PM 71.6 °F - 71.6 °F 100% 29.99 in 7.0 mi NNE 3.5 mph - N/A   Mostly Cloudy
8:32 PM 71.6 °F - 71.6 °F 100% 29.99 in 7.0 mi NE 3.5 mph - N/A   Mostly Cloudy
8:52 PM 71.1 °F - 71.1 °F 100% 29.99 in 7.0 mi NE 3.5 mph - N/A   Mostly Cloudy
8:58 PM 69.8 °F - 69.8 °F 100% 29.99 in 7.0 mi NE 4.6 mph - N/A   Scattered Clouds
9:05 PM 69.8 °F - 69.8 °F 100% 29.99 in 7.0 mi NE 4.6 mph - N/A   Mostly Cloudy
9:52 PM 71.1 °F - 71.1 °F 100% 30.00 in 7.0 mi North 3.5 mph - N/A   Mostly Cloudy
10:52 PM 71.1 °F - 71.1 °F 100% 30.00 in 6.0 mi North 3.5 mph - N/A   Mostly Cloudy
11:52 PM 71.1 °F - 71.1 °F 100% 29.99 in 5.0 mi North 3.5 mph - N/A   Mostly Cloudy
11:59 PM 71.6 °F - 71.6 °F 100% 29.98 in 5.0 mi North 4.6 mph - N/A   Mostly Cloudy